| time (UTC) | temp F | wind direction | speed MPH | gust MPH | rain 1hr in | rain 24hr in | rain mn in | humidity % | barometer mb |
| 20260904110053 | 63 | 246 | 1.0 | 4.0 | 0.00 | 0.00 | 0.00 | 94 | 1011.3 |
| 20260904105550 | 63 | 287 | 1.0 | 4.0 | 0.00 | 0.00 | 0.00 | 94 | 1011.2 |
| 20260904105049 | 63 | 300 | 1.0 | 5.0 | 0.00 | 0.00 | 0.00 | 94 | 1011.1 |
| 20260904104549 | 63 | 300 | 2.0 | 5.0 | 0.00 | 0.00 | 0.00 | 93 | 1011.0 |
| 20260904104047 | 63 | 291 | 2.0 | 7.0 | 0.00 | 0.00 | 0.00 | 93 | 1011.1 |
| 20260904103548 | 64 | 300 | 3.0 | 8.0 | 0.00 | 0.00 | 0.00 | 93 | 1011.1 |
| 20260904103049 | 64 | 295 | 4.0 | 8.0 | 0.00 | 0.00 | 0.00 | 93 | 1011.0 |
| 20260904102551 | 64 | 283 | 3.0 | 6.0 | 0.00 | 0.00 | 0.00 | 93 | 1010.9 |
| 20260904102048 | 64 | 293 | 1.0 | 5.0 | 0.00 | 0.00 | 0.00 | 92 | 1011.0 |
| 20260904101550 | 64 | 285 | 2.0 | 8.0 | 0.00 | 0.00 | 0.00 | 92 | 1010.9 |
| 20260904101050 | 64 | 290 | 4.0 | 8.0 | 0.00 | 0.00 | 0.00 | 91 | 1010.8 |
| 20260904100547 | 64 | 304 | 4.0 | 7.0 | 0.00 | 0.00 | 0.00 | 91 | 1010.7 |
| 20260904100047 | 64 | 285 | 3.0 | 7.0 | 0.00 | 0.00 | 0.00 | 91 | 1010.6 |
| 20260904095545 | 64 | 301 | 4.0 | 7.0 | 0.00 | 0.00 | 0.00 | 92 | 1010.7 |
| 20260904095045 | 64 | 302 | 3.0 | 7.0 | 0.00 | 0.00 | 0.00 | 92 | 1010.7 |
| 20260904094545 | 64 | 314 | 4.0 | 8.0 | 0.00 | 0.00 | 0.00 | 92 | 1010.8 |
| 20260904094045 | 64 | 292 | 4.0 | 8.0 | 0.00 | 0.00 | 0.00 | 92 | 1010.8 |
| 20260904093545 | 64 | 296 | 3.0 | 7.0 | 0.00 | 0.00 | 0.00 | 93 | 1010.7 |
| 20260904093047 | 64 | 288 | 0.0 | 3.0 | 0.00 | 0.00 | 0.00 | 93 | 1010.6 |
| 20260904092546 | 64 | 308 | 0.0 | 1.0 | 0.00 | 0.00 | 0.00 | 93 | 1010.6 |
| 20260904092044 | 64 | 18 | 0.0 | 1.0 | 0.00 | 0.00 | 0.00 | 92 | 1010.6 |
| 20260904091543 | 64 | 3 | 0.0 | 1.0 | 0.00 | 0.00 | 0.00 | 92 | 1010.6 |
| 20260904091041 | 64 | 353 | 0.0 | 1.0 | 0.00 | 0.00 | 0.00 | 92 | 1010.5 |
| 20260904090540 | 64 | 273 | 0.0 | 1.0 | 0.00 | 0.00 | 0.00 | 91 | 1010.6 |
| 20260904090042 | 65 | 273 | 0.0 | 3.0 | 0.00 | 0.00 | 0.00 | 91 | 1010.5 |
| 20260904085540 | 65 | 268 | 1.0 | 3.0 | 0.00 | 0.00 | 0.00 | 91 | 1010.5 |
| 20260904085040 | 65 | 44 | 0.0 | 1.0 | 0.00 | 0.00 | 0.00 | 90 | 1010.5 |
| 20260904084540 | 65 | 46 | 0.0 | 4.0 | 0.00 | 0.00 | 0.00 | 90 | 1010.5 |
| 20260904084039 | 65 | 271 | 0.0 | 4.0 | 0.00 | 0.00 | 0.00 | 90 | 1010.4 |
| 20260904083539 | 65 | 269 | 1.0 | 4.0 | 0.00 | 0.00 | 0.00 | 91 | 1010.6 |
| 20260904083039 | 65 | 61 | 0.0 | 0.0 | 0.00 | 0.00 | 0.00 | 91 | 1010.5 |
| 20260904082539 | 65 | 61 | 0.0 | 1.0 | 0.00 | 0.00 | 0.00 | 91 | 1010.5 |
| 20260904082038 | 64 | 61 | 0.0 | 1.0 | 0.00 | 0.00 | 0.00 | 91 | 1010.3 |
| 20260904081538 | 65 | 65 | 0.0 | 0.0 | 0.00 | 0.00 | 0.00 | 91 | 1010.4 |
| 20260904081037 | 65 | 65 | 0.0 | 0.0 | 0.00 | 0.00 | 0.00 | 91 | 1010.3 |
| 20260904080536 | 65 | 65 | 0.0 | 0.0 | 0.00 | 0.00 | 0.00 | 90 | 1010.2 |
| 20260904080037 | 65 | 65 | 0.0 | 2.0 | 0.00 | 0.00 | 0.00 | 90 | 1010.3 |
| 20260904075536 | 65 | 281 | 0.0 | 2.0 | 0.00 | 0.00 | 0.00 | 91 | 1010.4 |
| 20260904075034 | 65 | 90 | 0.0 | 1.0 | 0.00 | 0.00 | 0.00 | 90 | 1010.2 |
| 20260904074536 | 65 | 90 | 0.0 | 1.0 | 0.00 | 0.00 | 0.00 | 90 | 1010.1 |
| 20260904074034 | 65 | 91 | 0.0 | 1.0 | 0.00 | 0.00 | 0.00 | 90 | 1010.2 |
| 20260904073534 | 65 | 91 | 0.0 | 1.0 | 0.00 | 0.00 | 0.00 | 90 | 1010.2 |
| 20260904073035 | 65 | 91 | 0.0 | 1.0 | 0.00 | 0.00 | 0.00 | 90 | 1010.2 |
| 20260904072535 | 65 | 91 | 0.0 | 1.0 | 0.00 | 0.00 | 0.00 | 90 | 1010.2 |
| 20260904072034 | 65 | 90 | 0.0 | 1.0 | 0.00 | 0.00 | 0.00 | 90 | 1010.2 |
| 20260904071533 | 65 | 91 | 0.0 | 1.0 | 0.00 | 0.00 | 0.00 | 90 | 1010.2 |
| 20260904071032 | 65 | 90 | 0.0 | 1.0 | 0.00 | 0.00 | 0.00 | 89 | 1010.2 |
| 20260904070532 | 65 | 90 | 0.0 | 0.0 | 0.00 | 0.00 | 0.00 | 89 | 1010.2 |
| 20260904070031 | 65 | 90 | 0.0 | 0.0 | 0.00 | 0.00 | 0.00 | 89 | 1010.2 |
| 20260904065530 | 65 | 90 | 0.0 | 1.0 | 0.00 | 0.00 | 0.00 | 89 | 1010.2 |
| 20260904065029 | 66 | 90 | 0.0 | 1.0 | 0.00 | 0.00 | 0.00 | 88 | 1010.2 |
| 20260904064528 | 66 | 90 | 0.0 | 1.0 | 0.00 | 0.00 | 0.00 | 87 | 1010.3 |
| 20260904064028 | 66 | 90 | 0.0 | 1.0 | 0.00 | 0.00 | 0.00 | 87 | 1010.4 |
| 20260904063528 | 66 | 91 | 0.0 | 1.0 | 0.00 | 0.00 | 0.00 | 87 | 1010.4 |
| 20260904063036 | 66 | 91 | 0.0 | 1.0 | 0.00 | 0.00 | 0.00 | 87 | 1010.5 |
| 20260904062528 | 66 | 90 | 0.0 | 2.0 | 0.00 | 0.00 | 0.00 | 86 | 1010.4 |
| 20260904062026 | 66 | 91 | 0.0 | 2.0 | 0.00 | 0.00 | 0.00 | 87 | 1010.6 |
| 20260904061529 | 66 | 70 | 1.0 | 2.0 | 0.00 | 0.00 | 0.00 | 87 | 1010.7 |
| 20260904061025 | 66 | 88 | 0.0 | 0.0 | 0.00 | 0.00 | 0.00 | 87 | 1010.8 |
| 20260904060524 | 66 | 88 | 0.0 | 1.0 | 0.00 | 0.00 | 0.00 | 87 | 1010.9 |
| 20260904060023 | 66 | 88 | 0.0 | 1.0 | 0.00 | 0.00 | 0.00 | 86 | 1010.9 |
| 20260904055522 | 66 | 88 | 0.0 | 1.0 | 0.00 | 0.00 | 0.00 | 87 | 1011.0 |
| 20260904055022 | 66 | 88 | 0.0 | 1.0 | 0.00 | 0.00 | 0.00 | 87 | 1011.1 |
| 20260904054523 | 66 | 88 | 0.0 | 0.0 | 0.00 | 0.00 | 0.00 | 87 | 1011.1 |
| 20260904054021 | 66 | 88 | 0.0 | 0.0 | 0.00 | 0.00 | 0.00 | 87 | 1011.1 |
| 20260904053521 | 66 | 88 | 0.0 | 0.0 | 0.00 | 0.00 | 0.00 | 86 | 1011.1 |
| 20260904053026 | 66 | 88 | 0.0 | 1.0 | 0.00 | 0.00 | 0.00 | 86 | 1011.1 |
| 20260904052521 | 66 | 88 | 0.0 | 1.0 | 0.00 | 0.00 | 0.00 | 87 | 1011.1 |
| 20260904052021 | 66 | 88 | 0.0 | 1.0 | 0.00 | 0.00 | 0.00 | 86 | 1011.2 |
| 20260904051548 | 66 | 88 | 0.0 | 1.0 | 0.00 | 0.00 | 0.00 | 86 | 1011.2 |
| 20260904051021 | 66 | 88 | 0.0 | 1.0 | 0.00 | 0.00 | 0.00 | 86 | 1011.1 |
| 20260904050520 | 66 | 87 | 0.0 | 1.0 | 0.00 | 0.00 | 0.00 | 86 | 1011.1 |
| 20260904050020 | 66 | 88 | 0.0 | 1.0 | 0.00 | 0.00 | 0.00 | 86 | 1011.1 |
| 20260904045520 | 66 | 87 | 0.0 | 1.0 | 0.00 | 0.00 | 0.00 | 85 | 1011.1 |
| 20260904045020 | 66 | 88 | 0.0 | 1.0 | 0.00 | 0.00 | 0.00 | 85 | 1011.1 |
| 20260904044519 | 66 | 88 | 0.0 | 1.0 | 0.00 | 0.00 | 0.00 | 85 | 1011.1 |
| 20260904044019 | 66 | 88 | 0.0 | 1.0 | 0.00 | 0.00 | 0.00 | 85 | 1010.9 |
| 20260904043516 | 66 | 88 | 0.0 | 1.0 | 0.00 | 0.00 | 0.00 | 86 | 1011.2 |
| 20260904043016 | 66 | 88 | 0.0 | 1.0 | 0.00 | 0.00 | 0.00 | 86 | 1011.2 |
| 20260904042517 | 66 | 88 | 0.0 | 1.0 | 0.00 | 0.00 | 0.00 | 85 | 1011.2 |
| 20260904042015 | 66 | 88 | 0.0 | 1.0 | 0.00 | 0.00 | 0.00 | 86 | 1011.3 |
| 20260904041520 | 66 | 88 | 0.0 | 1.0 | 0.00 | 0.00 | 0.00 | 86 | 1011.3 |
| 20260904041014 | 66 | 88 | 0.0 | 1.0 | 0.00 | 0.00 | 0.00 | 85 | 1011.3 |
| 20260904040513 | 66 | 88 | 0.0 | 1.0 | 0.00 | 0.00 | 0.00 | 85 | 1011.4 |
| 20260904040020 | 66 | 88 | 0.0 | 1.0 | 0.00 | 0.00 | 0.00 | 85 | 1011.4 |
| 20260904035514 | 66 | 88 | 0.0 | 1.0 | 0.00 | 0.12 | 0.00 | 85 | 1011.4 |
| 20260904035012 | 66 | 88 | 0.0 | 1.0 | 0.00 | 0.12 | 0.00 | 86 | 1011.4 |
| 20260904034511 | 66 | 87 | 0.0 | 1.0 | 0.00 | 0.12 | 0.00 | 85 | 1011.4 |
| 20260904034011 | 66 | 86 | 0.0 | 1.0 | 0.00 | 0.12 | 0.00 | 85 | 1011.5 |
| 20260904033511 | 66 | 86 | 0.0 | 2.0 | 0.00 | 0.12 | 0.00 | 85 | 1011.5 |
| 20260904033010 | 66 | 91 | 0.0 | 2.0 | 0.00 | 0.12 | 0.00 | 85 | 1011.6 |
| 20260904032511 | 66 | 97 | 0.0 | 1.0 | 0.00 | 0.12 | 0.00 | 84 | 1011.5 |
| 20260904032010 | 66 | 98 | 0.0 | 1.0 | 0.00 | 0.12 | 0.00 | 85 | 1011.8 |
| 20260904031511 | 66 | 98 | 0.0 | 1.0 | 0.00 | 0.12 | 0.00 | 85 | 1011.6 |
| 20260904031013 | 66 | 98 | 0.0 | 1.0 | 0.00 | 0.12 | 0.00 | 85 | 1011.9 |
| 20260904030510 | 66 | 97 | 0.0 | 1.0 | 0.00 | 0.12 | 0.00 | 85 | 1011.9 |
| 20260904030009 | 66 | 97 | 0.0 | 1.0 | 0.00 | 0.12 | 0.00 | 86 | 1011.5 |
| 20260904025509 | 67 | 97 | 0.0 | 1.0 | 0.00 | 0.15 | 0.00 | 85 | 1011.5 |
| 20260904025009 | 67 | 97 | 0.0 | 1.0 | 0.00 | 0.15 | 0.00 | 84 | 1011.5 |
| 20260904024509 | 67 | 97 | 0.0 | 1.0 | 0.00 | 0.15 | 0.00 | 85 | 1011.5 |
| 20260904024009 | 67 | 97 | 0.0 | 1.0 | 0.00 | 0.15 | 0.00 | 85 | 1011.6 |
| 20260904023512 | 67 | 97 | 0.0 | 1.0 | 0.00 | 0.15 | 0.00 | 85 | 1011.7 |
| 20260904023009 | 67 | 98 | 0.0 | 1.0 | 0.00 | 0.15 | 0.00 | 84 | 1011.9 |
| 20260904022509 | 67 | 97 | 0.0 | 1.0 | 0.00 | 0.15 | 0.00 | 83 | 1012.0 |
| 20260904022011 | 67 | 98 | 0.0 | 1.0 | 0.00 | 0.15 | 0.00 | 84 | 1012.1 |
| 20260904021509 | 67 | 97 | 0.0 | 1.0 | 0.00 | 0.15 | 0.00 | 83 | 1012.1 |
| 20260904021011 | 67 | 98 | 0.0 | 1.0 | 0.00 | 0.15 | 0.00 | 84 | 1012.1 |
| 20260904020508 | 67 | 98 | 0.0 | 1.0 | 0.00 | 0.15 | 0.00 | 84 | 1012.1 |
| 20260904020008 | 67 | 96 | 0.0 | 1.0 | 0.00 | 0.15 | 0.00 | 84 | 1012.2 |
| 20260904015507 | 67 | 98 | 0.0 | 1.0 | 0.00 | 0.15 | 0.00 | 84 | 1012.4 |
| 20260904015007 | 67 | 98 | 0.0 | 1.0 | 0.00 | 0.15 | 0.00 | 84 | 1012.3 |
| 20260904014507 | 67 | 92 | 0.0 | 1.0 | 0.00 | 0.15 | 0.00 | 84 | 1012.1 |
| 20260904014010 | 67 | 91 | 0.0 | 1.0 | 0.00 | 0.15 | 0.00 | 84 | 1012.2 |
| 20260904013507 | 67 | 89 | 0.0 | 1.0 | 0.00 | 0.15 | 0.00 | 85 | 1012.2 |
| 20260904013007 | 67 | 89 | 0.0 | 1.0 | 0.00 | 0.15 | 0.00 | 85 | 1012.2 |
| 20260904012507 | 67 | 89 | 0.0 | 1.0 | 0.00 | 0.15 | 0.00 | 85 | 1012.2 |
| 20260904012007 | 67 | 92 | 0.0 | 1.0 | 0.00 | 0.15 | 0.00 | 84 | 1012.0 |
| 20260904011519 | 67 | 92 | 0.0 | 1.0 | 0.00 | 0.15 | 0.00 | 85 | 1012.0 |
| 20260904011016 | 67 | 92 | 0.0 | 1.0 | 0.00 | 0.15 | 0.00 | 85 | 1012.0 |
| 20260904010522 | 67 | 92 | 0.0 | 1.0 | 0.00 | 0.15 | 0.00 | 85 | 1012.0 |
| 20260904010021 | 67 | 92 | 0.0 | 1.0 | 0.00 | 0.15 | 0.00 | 86 | 1011.9 |
| 20260904005519 | 67 | 92 | 0.0 | 1.0 | 0.00 | 0.15 | 0.00 | 86 | 1011.9 |
| 20260904005019 | 67 | 92 | 0.0 | 1.0 | 0.00 | 0.15 | 0.00 | 86 | 1011.9 |
| 20260904004524 | 67 | 91 | 0.0 | 1.0 | 0.00 | 0.15 | 0.00 | 86 | 1011.9 |
| 20260904004009 | 67 | 92 | 0.0 | 1.0 | 0.00 | 0.15 | 0.00 | 86 | 1011.9 |
| 20260904003521 | 67 | 92 | 0.0 | 1.0 | 0.00 | 0.15 | 0.00 | 87 | 1012.0 |
| 20260904003025 | 67 | 92 | 0.0 | 1.0 | 0.00 | 0.15 | 0.00 | 86 | 1011.9 |
| 20260904002509 | 67 | 90 | 0.0 | 1.0 | 0.00 | 0.15 | 0.00 | 87 | 1011.9 |
| 20260904002017 | 67 | 90 | 0.0 | 1.0 | 0.00 | 0.15 | 0.00 | 87 | 1011.9 |
| 20260904001522 | 67 | 90 | 0.0 | 1.0 | 0.00 | 0.15 | 0.00 | 87 | 1011.8 |
| 20260904001007 | 67 | 91 | 0.0 | 2.0 | 0.00 | 0.15 | 0.00 | 87 | 1011.8 |
| 20260904000521 | 67 | 90 | 0.0 | 3.0 | 0.00 | 0.15 | 0.00 | 87 | 1011.8 |
| 20260904000024 | 67 | 91 | 0.0 | 3.0 | 0.00 | 0.15 | 0.00 | 87 | 1011.8 |
| 20260903235520 | 67 | 91 | 0.0 | 1.0 | 0.00 | 0.15 | 0.00 | 87 | 1011.7 |
| 20260903235008 | 67 | 90 | 0.0 | 1.0 | 0.00 | 0.15 | 0.00 | 87 | 1011.8 |
| 20260903234520 | 67 | 91 | 0.0 | 1.0 | 0.00 | 0.15 | 0.00 | 87 | 1011.8 |
| 20260903234005 | 67 | 90 | 0.0 | 2.0 | 0.00 | 0.15 | 0.00 | 86 | 1011.8 |
| 20260903233515 | 67 | 91 | 0.0 | 1.0 | 0.00 | 0.15 | 0.00 | 87 | 1011.9 |
| 20260903233019 | 67 | 84 | 0.0 | 0.0 | 0.00 | 0.15 | 0.00 | 86 | 1011.8 |
| 20260903232508 | 68 | 84 | 0.0 | 1.0 | 0.00 | 0.15 | 0.00 | 85 | 1011.6 |
| 20260903232015 | 68 | 85 | 0.0 | 1.0 | 0.00 | 0.15 | 0.00 | 86 | 1011.5 |
| 20260903231526 | 68 | 85 | 0.0 | 1.0 | 0.00 | 0.15 | 0.00 | 85 | 1011.4 |
| 20260903231012 | 68 | 84 | 0.0 | 1.0 | 0.00 | 0.15 | 0.00 | 86 | 1011.6 |
| 20260903230523 | 69 | 81 | 0.0 | 0.0 | 0.00 | 0.15 | 0.00 | 85 | 1011.5 |
| 20260903230009 | 69 | 82 | 0.0 | 1.0 | 0.00 | 0.15 | 0.00 | 84 | 1011.5 |
| 20260903225516 | 70 | 81 | 0.0 | 1.0 | 0.00 | 0.15 | 0.00 | 83 | 1011.6 |
| 20260903225007 | 71 | 283 | 0.0 | 0.0 | 0.00 | 0.15 | 0.00 | 80 | 1011.6 |
| 20260903224518 | 72 | 283 | 0.0 | 0.0 | 0.00 | 0.15 | 0.00 | 78 | 1011.6 |
| 20260903224022 | 73 | 282 | 0.0 | 1.0 | 0.00 | 0.15 | 0.00 | 76 | 1011.5 |
| 20260903223511 | 73 | 283 | 0.0 | 1.0 | 0.00 | 0.15 | 0.00 | 72 | 1011.5 |
| 20260903223025 | 73 | 280 | 0.0 | 2.0 | 0.00 | 0.15 | 0.00 | 71 | 1011.5 |
| 20260903222530 | 73 | 290 | 0.0 | 3.0 | 0.00 | 0.15 | 0.00 | 70 | 1011.5 |
| 20260903222012 | 74 | 274 | 0.0 | 6.0 | 0.00 | 0.15 | 0.00 | 70 | 1011.6 |
| 20260903221522 | 74 | 296 | 3.0 | 6.0 | 0.00 | 0.15 | 0.00 | 69 | 1011.5 |
| 20260903221008 | 74 | 266 | 2.0 | 6.0 | 0.00 | 0.15 | 0.00 | 69 | 1011.5 |
| 20260903220519 | 75 | 284 | 1.0 | 6.0 | 0.00 | 0.15 | 0.00 | 68 | 1011.4 |
| 20260903215515 | 76 | 285 | 1.0 | 5.0 | 0.00 | 0.15 | 0.00 | 66 | 1011.3 |
| 20260903215021 | 76 | 297 | 0.0 | 5.0 | 0.00 | 0.15 | 0.00 | 66 | 1011.4 |
| 20260903214524 | 76 | 293 | 1.0 | 8.0 | 0.00 | 0.15 | 0.00 | 67 | 1011.4 |
| 20260903214015 | 76 | 321 | 5.0 | 8.0 | 0.00 | 0.15 | 0.00 | 66 | 1011.4 |
| 20260903213521 | 76 | 260 | 2.0 | 8.0 | 0.00 | 0.15 | 0.00 | 71 | 1011.5 |
| 20260903213009 | 76 | 277 | 0.0 | 4.0 | 0.00 | 0.15 | 0.00 | 72 | 1011.6 |
| 20260903212513 | 75 | 298 | 1.0 | 4.0 | 0.00 | 0.15 | 0.00 | 72 | 1011.7 |
| 20260903212020 | 75 | 305 | 1.0 | 5.0 | 0.00 | 0.15 | 0.00 | 76 | 1011.6 |
| 20260903211524 | 76 | 278 | 1.0 | 5.0 | 0.00 | 0.15 | 0.00 | 76 | 1011.4 |
| 20260903211011 | 76 | 280 | 2.0 | 5.0 | 0.00 | 0.15 | 0.00 | 78 | 1011.3 |
| 20260903210518 | 76 | 274 | 2.0 | 5.0 | 0.00 | 0.15 | 0.00 | 77 | 1011.5 |
| 20260903210024 | 76 | 288 | 1.0 | 5.0 | 0.00 | 0.15 | 0.00 | 75 | 1011.5 |
| 20260903205512 | 77 | 288 | 2.0 | 4.0 | 0.00 | 0.15 | 0.00 | 74 | 1011.5 |
| 20260903205014 | 78 | 314 | 2.0 | 4.0 | 0.00 | 0.15 | 0.00 | 76 | 1011.5 |
| 20260903204521 | 78 | 282 | 0.0 | 3.0 | 0.00 | 0.15 | 0.00 | 76 | 1011.5 |
| 20260903204006 | 78 | 298 | 0.0 | 7.0 | 0.00 | 0.15 | 0.00 | 79 | 1011.5 |
| 20260903203518 | 77 | 283 | 3.0 | 11.0 | 0.00 | 0.15 | 0.00 | 78 | 1011.5 |
| 20260903203026 | 76 | 294 | 5.0 | 8.0 | 0.00 | 0.15 | 0.00 | 78 | 1011.4 |
| 20260903202528 | 76 | 290 | 5.0 | 10.0 | 0.00 | 0.15 | 0.00 | 78 | 1011.4 |
| 20260903202015 | 76 | 277 | 5.0 | 10.0 | 0.00 | 0.15 | 0.00 | 78 | 1011.4 |
| 20260903201518 | 76 | 271 | 6.0 | 10.0 | 0.00 | 0.15 | 0.00 | 78 | 1011.3 |
| 20260903201022 | 76 | 270 | 4.0 | 9.0 | 0.00 | 0.15 | 0.00 | 78 | 1011.3 |
| 20260903200510 | 75 | 280 | 5.0 | 9.0 | 0.00 | 0.15 | 0.00 | 79 | 1011.4 |
| 20260903200017 | 75 | 286 | 4.0 | 7.0 | 0.00 | 0.15 | 0.00 | 79 | 1011.4 |
| 20260903195507 | 74 | 270 | 1.0 | 6.0 | 0.00 | 0.15 | 0.00 | 80 | 1011.4 |
| 20260903195012 | 74 | 231 | 1.0 | 7.0 | 0.00 | 0.15 | 0.00 | 80 | 1011.5 |
| 20260903194521 | 75 | 271 | 3.0 | 7.0 | 0.00 | 0.15 | 0.00 | 79 | 1011.5 |
| 20260903194010 | 74 | 314 | 1.0 | 5.0 | 0.00 | 0.15 | 0.00 | 81 | 1011.6 |
| 20260903193517 | 75 | 314 | 2.0 | 5.0 | 0.00 | 0.15 | 0.00 | 81 | 1011.6 |
| 20260903193022 | 75 | 99 | 1.0 | 3.0 | 0.00 | 0.15 | 0.00 | 81 | 1011.6 |
| 20260903192524 | 75 | 129 | 0.0 | 8.0 | 0.00 | 0.15 | 0.00 | 80 | 1011.5 |
| 20260903192010 | 75 | 263 | 3.0 | 8.0 | 0.00 | 0.15 | 0.00 | 79 | 1011.6 |
| 20260903191517 | 75 | 271 | 4.0 | 7.0 | 0.00 | 0.15 | 0.00 | 79 | 1011.6 |
| 20260903191021 | 75 | 278 | 3.0 | 7.0 | 0.00 | 0.15 | 0.00 | 80 | 1011.5 |
| 20260903190509 | 75 | 283 | 4.0 | 8.0 | 0.00 | 0.15 | 0.00 | 81 | 1011.6 |
| 20260903190016 | 76 | 283 | 3.0 | 9.0 | 0.00 | 0.15 | 0.00 | 78 | 1011.8 |
| 20260903185522 | 76 | 294 | 5.0 | 10.0 | 0.00 | 0.15 | 0.00 | 80 | 1011.8 |
| 20260903185010 | 76 | 307 | 6.0 | 9.0 | 0.00 | 0.15 | 0.00 | 82 | 1011.8 |
| 20260903184520 | 75 | 290 | 4.0 | 11.0 | 0.00 | 0.15 | 0.00 | 81 | 1011.9 |
| 20260903184021 | 75 | 276 | 5.0 | 14.0 | 0.00 | 0.15 | 0.00 | 82 | 1012.0 |
| 20260903183509 | 75 | 288 | 7.0 | 14.0 | 0.00 | 0.15 | 0.00 | 80 | 1012.0 |
| 20260903183015 | 75 | 281 | 7.0 | 11.0 | 0.00 | 0.15 | 0.00 | 81 | 1012.2 |
| 20260903182520 | 75 | 278 | 8.0 | 13.0 | 0.00 | 0.15 | 0.00 | 82 | 1012.0 |
| 20260903182005 | 75 | 274 | 8.0 | 11.0 | 0.00 | 0.15 | 0.00 | 82 | 1012.1 |
| 20260903181516 | 74 | 266 | 5.0 | 8.0 | 0.00 | 0.15 | 0.00 | 84 | 1012.1 |
| 20260903181022 | 74 | 283 | 3.0 | 7.0 | 0.00 | 0.15 | 0.00 | 85 | 1012.1 |
| 20260903180511 | 74 | 293 | 2.0 | 7.0 | 0.00 | 0.15 | 0.00 | 84 | 1012.1 |
| 20260903180024 | 74 | 298 | 3.0 | 6.0 | 0.00 | 0.15 | 0.00 | 84 | 1012.1 |
| 20260903175521 | 74 | 285 | 3.0 | 7.0 | 0.00 | 0.17 | 0.00 | 84 | 1012.1 |
| 20260903175009 | 74 | 266 | 3.0 | 7.0 | 0.00 | 0.17 | 0.00 | 84 | 1012.1 |
| 20260903174521 | 74 | 307 | 3.0 | 7.0 | 0.00 | 0.17 | 0.00 | 83 | 1012.1 |
| 20260903174027 | 74 | 270 | 4.0 | 12.0 | 0.00 | 0.17 | 0.00 | 82 | 1012.0 |
| 20260903173507 | 74 | 302 | 4.0 | 8.0 | 0.00 | 0.17 | 0.00 | 81 | 1012.0 |
| 20260903173013 | 75 | 277 | 5.0 | 8.0 | 0.00 | 0.17 | 0.00 | 83 | 1012.0 |
| 20260903172523 | 74 | 314 | 5.0 | 13.0 | 0.00 | 0.17 | 0.00 | 84 | 1012.1 |
| 20260903172009 | 74 | 312 | 7.0 | 13.0 | 0.00 | 0.17 | 0.00 | 82 | 1012.1 |
| 20260903171517 | 74 | 298 | 6.0 | 11.0 | 0.00 | 0.17 | 0.00 | 83 | 1012.2 |
| 20260903171021 | 74 | 280 | 5.0 | 12.0 | 0.00 | 0.17 | 0.00 | 83 | 1012.3 |
| 20260903170508 | 74 | 319 | 6.0 | 12.0 | 0.00 | 0.17 | 0.00 | 82 | 1012.3 |
| 20260903170016 | 74 | 300 | 7.0 | 10.0 | 0.00 | 0.17 | 0.00 | 83 | 1012.2 |
| 20260903165519 | 73 | 264 | 6.0 | 12.0 | 0.00 | 0.19 | 0.00 | 83 | 1012.4 |
| 20260903165022 | 73 | 307 | 6.0 | 12.0 | 0.00 | 0.19 | 0.00 | 83 | 1012.4 |
| 20260903164527 | 73 | 290 | 5.0 | 12.0 | 0.00 | 0.19 | 0.00 | 82 | 1012.5 |
| 20260903164013 | 74 | 284 | 5.0 | 12.0 | 0.00 | 0.19 | 0.00 | 81 | 1012.5 |
| 20260903163524 | 74 | 291 | 5.0 | 14.0 | 0.00 | 0.19 | 0.00 | 83 | 1012.4 |
| 20260903163005 | 74 | 302 | 6.0 | 14.0 | 0.00 | 0.19 | 0.00 | 84 | 1012.5 |
| 20260903162511 | 74 | 271 | 6.0 | 13.0 | 0.00 | 0.19 | 0.00 | 85 | 1012.5 |
| 20260903162015 | 74 | 309 | 8.0 | 13.0 | 0.00 | 0.19 | 0.00 | 84 | 1012.6 |
| 20260903161524 | 73 | 297 | 8.0 | 13.0 | 0.00 | 0.19 | 0.00 | 83 | 1012.6 |
| 20260903161114 | 73 | 297 | 8.0 | 13.0 | 0.00 | 0.19 | 0.00 | 84 | 1012.7 |
| 20260903160521 | 73 | 321 | 7.0 | 13.0 | 0.00 | 0.19 | 0.00 | 85 | 1012.7 |
| 20260903160050 | 72 | 297 | 5.0 | 12.0 | 0.00 | 0.19 | 0.00 | 87 | 1012.8 |
| 20260903155513 | 72 | 298 | 7.0 | 12.0 | 0.00 | 0.19 | 0.00 | 87 | 1012.8 |
| 20260903155013 | 71 | 294 | 7.0 | 13.0 | 0.00 | 0.19 | 0.00 | 88 | 1012.9 |
| 20260903154522 | 71 | 285 | 7.0 | 13.0 | 0.00 | 0.19 | 0.00 | 89 | 1013.0 |
| 20260903154014 | 70 | 296 | 7.0 | 12.0 | 0.00 | 0.19 | 0.00 | 88 | 1013.1 |
| 20260903153519 | 70 | 283 | 7.0 | 14.0 | 0.00 | 0.19 | 0.00 | 89 | 1013.2 |
| 20260903153021 | 70 | 303 | 6.0 | 14.0 | 0.00 | 0.19 | 0.00 | 89 | 1013.3 |
| 20260903152510 | 70 | 300 | 7.0 | 14.0 | 0.00 | 0.19 | 0.00 | 89 | 1013.2 |
| 20260903152015 | 70 | 293 | 8.0 | 13.0 | 0.00 | 0.19 | 0.00 | 88 | 1013.2 |
| 20260903151525 | 70 | 262 | 6.0 | 13.0 | 0.00 | 0.19 | 0.00 | 89 | 1013.1 |
| 20260903151024 | 70 | 270 | 6.0 | 13.0 | 0.00 | 0.19 | 0.00 | 88 | 1013.1 |
| 20260903150510 | 70 | 288 | 5.0 | 12.0 | 0.00 | 0.19 | 0.00 | 88 | 1013.0 |
| 20260903150026 | 70 | 307 | 6.0 | 14.0 | 0.00 | 0.19 | 0.00 | 89 | 1013.0 |
| 20260903145525 | 70 | 312 | 8.0 | 15.0 | 0.00 | 0.19 | 0.00 | 88 | 1013.0 |
| 20260903145013 | 71 | 309 | 7.0 | 15.0 | 0.00 | 0.19 | 0.00 | 89 | 1013.0 |
| 20260903144523 | 71 | 285 | 5.0 | 13.0 | 0.00 | 0.19 | 0.00 | 89 | 1012.8 |
| 20260903144007 | 71 | 297 | 6.0 | 13.0 | 0.00 | 0.19 | 0.00 | 89 | 1012.8 |
| 20260903143519 | 70 | 311 | 4.0 | 12.0 | 0.00 | 0.19 | 0.00 | 88 | 1012.8 |
| 20260903143024 | 70 | 280 | 7.0 | 14.0 | 0.00 | 0.19 | 0.00 | 88 | 1012.9 |
| 20260903142528 | 70 | 273 | 7.0 | 14.0 | 0.00 | 0.19 | 0.00 | 88 | 1012.9 |
| 20260903142013 | 70 | 259 | 6.0 | 12.0 | 0.00 | 0.19 | 0.00 | 89 | 1012.9 |
| 20260903141517 | 70 | 300 | 7.0 | 15.0 | 0.00 | 0.19 | 0.00 | 88 | 1012.8 |
| 20260903141024 | 70 | 304 | 8.0 | 15.0 | 0.00 | 0.19 | 0.00 | 89 | 1012.8 |
| 20260903140527 | 70 | 302 | 8.0 | 13.0 | 0.00 | 0.19 | 0.00 | 89 | 1012.7 |
| 20260903140012 | 70 | 302 | 8.0 | 15.0 | 0.00 | 0.19 | 0.00 | 89 | 1012.7 |
| 20260903135520 | 70 | 286 | 9.0 | 15.0 | 0.00 | 0.19 | 0.00 | 88 | 1012.8 |
| 20260903135026 | 70 | 316 | 7.0 | 13.0 | 0.00 | 0.19 | 0.00 | 89 | 1012.7 |
| 20260903134513 | 70 | 316 | 9.0 | 13.0 | 0.00 | 0.19 | 0.00 | 89 | 1012.7 |
| 20260903134018 | 70 | 288 | 9.0 | 17.0 | 0.00 | 0.19 | 0.00 | 89 | 1012.7 |
| 20260903133524 | 70 | 304 | 9.0 | 17.0 | 0.00 | 0.19 | 0.00 | 89 | 1012.6 |
| 20260903133111 | 70 | 277 | 8.0 | 16.0 | 0.00 | 0.19 | 0.00 | 89 | 1012.5 |
| 20260903132517 | 69 | 277 | 9.0 | 17.0 | 0.00 | 0.19 | 0.00 | 89 | 1012.5 |
| 20260903132017 | 69 | 287 | 9.0 | 17.0 | 0.00 | 0.19 | 0.00 | 89 | 1012.7 |
| 20260903131526 | 69 | 298 | 9.0 | 14.0 | 0.00 | 0.19 | 0.00 | 89 | 1012.8 |
| 20260903131014 | 69 | 281 | 7.0 | 14.0 | 0.00 | 0.19 | 0.00 | 89 | 1012.8 |
| 20260903130519 | 69 | 309 | 5.0 | 14.0 | 0.00 | 0.19 | 0.00 | 90 | 1012.6 |
| 20260903130025 | 69 | 283 | 8.0 | 14.0 | 0.00 | 0.19 | 0.00 | 90 | 1012.7 |
| 20260903125511 | 69 | 296 | 8.0 | 15.0 | 0.00 | 0.19 | 0.00 | 89 | 1012.7 |
| 20260903125013 | 69 | 280 | 9.0 | 16.0 | 0.00 | 0.19 | 0.00 | 89 | 1012.8 |
| 20260903124522 | 69 | 295 | 9.0 | 16.0 | 0.00 | 0.19 | 0.00 | 90 | 1012.9 |
| 20260903124003 | 68 | 295 | 7.0 | 14.0 | 0.00 | 0.19 | 0.00 | 90 | 1013.1 |
| 20260903123512 | 68 | 281 | 4.0 | 11.0 | 0.00 | 0.19 | 0.00 | 90 | 1013.1 |
| 20260903123018 | 68 | 307 | 4.0 | 10.0 | 0.00 | 0.19 | 0.00 | 91 | 1013.1 |
| 20260903122512 | 68 | 290 | 3.0 | 7.0 | 0.00 | 0.19 | 0.00 | 90 | 1013.0 |
| 20260903122052 | 68 | 285 | 4.0 | 7.0 | 0.00 | 0.19 | 0.00 | 90 | 1013.1 |
| 20260903121549 | 68 | 298 | 3.0 | 6.0 | 0.00 | 0.19 | 0.00 | 90 | 1013.0 |
| 20260903121048 | 67 | 162 | 2.0 | 7.0 | 0.00 | 0.19 | 0.00 | 90 | 1013.0 |
| 20260903120548 | 67 | 276 | 3.0 | 7.0 | 0.00 | 0.19 | 0.00 | 90 | 1013.0 |
| 20260903115547 | 68 | 298 | 0.0 | 8.0 | 0.00 | 0.19 | 0.00 | 90 | 1013.1 |
| 20260903115052 | 68 | 297 | 1.0 | 9.0 | 0.00 | 0.19 | 0.00 | 90 | 1013.2 |
| 20260903114547 | 68 | 243 | 3.0 | 14.0 | 0.00 | 0.19 | 0.00 | 90 | 1013.1 |
| 20260903114048 | 68 | 295 | 7.0 | 19.0 | 0.00 | 0.19 | 0.00 | 90 | 1013.1 |
| 20260903113550 | 68 | 263 | 7.0 | 19.0 | 0.00 | 0.19 | 0.00 | 90 | 1013.1 |
| 20260903113046 | 67 | 295 | 8.0 | 14.0 | 0.00 | 0.19 | 0.00 | 90 | 1013.0 |
| 20260903112548 | 67 | 301 | 6.0 | 16.0 | 0.00 | 0.19 | 0.00 | 90 | 1012.9 |
| 20260903112045 | 67 | 278 | 5.0 | 16.0 | 0.00 | 0.19 | 0.00 | 90 | 1013.2 |
| 20260903111544 | 67 | 304 | 3.0 | 8.0 | 0.00 | 0.19 | 0.00 | 90 | 1013.3 |
| 20260903111045 | 67 | 277 | 3.0 | 8.0 | 0.00 | 0.19 | 0.00 | 90 | 1013.3 |
| 20260903110545 | 67 | 285 | 3.0 | 9.0 | 0.00 | 0.19 | 0.00 | 90 | 1013.2 |